Location: Montbazon
(47.2835°N, 0.6999°E)
Time: 02:21:04
(UTC+00:00)

Cosmos 44 Rocket - Pass Details

Date: 08 November 2025
Orbit: 637 x 741 km, 65.1° (Epoch: 13 December)

Event Time Altitude Azimuth Distance (km) Brightness Sun altitude
Exits shadow 04:05:15 53° 23° (NNE) 897 3.9 -28.3°
Maximum altitude 04:05:46 56° 48° (NE) 872 3.9 -28.2°
Drops below altitude 10° 04:10:50 10° 127° (SE) 2,246 6.5 -27.3°
Sets 04:13:16 0° 131° (SE) 3,168 7.3 -26.9°
